CW3847 La Orotava ES current weather conditions

sailwx.info

Wind from 311 at 2 knots gusting 2

Air temperature 25.6° C
Dewpoint 21.0° C

Last reported at 2014-Aug-21 13:39 UTC.
Time now 2014-Aug-21 14:07 UTC

Location: N 28°23' W 016°31'.
View on Google Maps.

See reports from other nearby stations

  
Tides and Currents Weather Stations Pressure Air Temp Water Temp Dewpoint Dewpoint Depression Visibility Wind Speed Wind Dir Waves Ship Positions
date/time (UTC)wind fromknots sea level pressurealtimeterstation pressurevisibilityair tempwater tempwave heightnotes
2014-Aug-21 13:39 311 2 gusting 2 25.6
2014-Aug-21 13:19 360 2 gusting 5 25.6
2014-Aug-21 13:09 355 1 gusting 6 25.6
2014-Aug-21 12:59 313 2 gusting 3 25.6
2014-Aug-21 12:39 338 2 gusting 5 26.1
2014-Aug-21 12:19 331 2 gusting 6 26.1
2014-Aug-21 12:09 300 2 gusting 4 26.1
2014-Aug-21 11:59 346 2 gusting 4 26.1
2014-Aug-21 11:49 323 1 gusting 3 25.6
2014-Aug-21 11:29 009 2 gusting 5 25.6
2014-Aug-21 11:19 295 2 gusting 4 25.6
2014-Aug-21 11:09 039 2 gusting 2 25.0
2014-Aug-21 10:59 011 2 gusting 5 25.0
2014-Aug-21 10:49 331 2 gusting 4 25.0
2014-Aug-21 10:39 017 1 gusting 2 25.0
2014-Aug-21 10:19 291 1 gusting 3 24.4
2014-Aug-21 09:49 323 1 gusting 2 23.3
2014-Aug-21 09:29 298 0 gusting 2 22.8
2014-Aug-21 08:59 324 2 gusting 2 21.7
2014-Aug-21 08:49 279 0 gusting 2 21.7
2014-Aug-21 08:39 326 0 gusting 2 21.7
2014-Aug-21 08:09 217 1 gusting 1 21.1
2014-Aug-21 07:19 217 20.0
2014-Aug-21 07:09 217 0 gusting 1 20.0
2014-Aug-21 06:39 217 19.4
2014-Aug-21 06:29 217 19.4
2014-Aug-21 06:09 292 19.4
2014-Aug-21 05:59 292 0 gusting 0 19.4
2014-Aug-21 05:49 255 0 gusting 1 20.0
2014-Aug-21 05:39 252 20.0
2014-Aug-21 05:19 252 19.4
2014-Aug-21 05:09 252 1 gusting 1 19.4
2014-Aug-21 03:59 196 19.4
2014-Aug-21 03:39 196 19.4
2014-Aug-21 02:59 196 19.4
2014-Aug-21 02:49 196 0 gusting 1 19.4
2014-Aug-21 02:29 196 19.4
2014-Aug-21 02:09 196 19.4
2014-Aug-21 01:59 196 19.4
2014-Aug-21 01:19 196 19.4
2014-Aug-21 01:09 196 19.4
2014-Aug-21 00:29 264 1 gusting 2 19.4
2014-Aug-21 00:09 264 0 gusting 2 19.4
2014-Aug-20 23:49 267 0 gusting 1 19.4
2014-Aug-20 23:29 297 0 gusting 2 20.0
2014-Aug-20 23:19 299 0 gusting 1 20.0
2014-Aug-20 22:59 202 1 gusting 2 20.0
2014-Aug-20 22:49 355 2 gusting 2 20.0
2014-Aug-20 22:39 005 0 gusting 2 20.0
2014-Aug-20 22:29 203 1 gusting 2 20.0
2014-Aug-20 22:09 304 20.0
2014-Aug-20 21:49 338 20.0
2014-Aug-20 20:49 331 20.6
2014-Aug-20 20:19 248 20.6
2014-Aug-20 19:59 308 20.6
2014-Aug-20 19:39 308 1 gusting 2 20.6
2014-Aug-20 19:29 338 20.6
2014-Aug-20 19:09 355 1 gusting 2 20.6
2014-Aug-20 18:39 355 1 gusting 2 21.1
2014-Aug-20 18:29 030 1 gusting 2 21.1
2014-Aug-20 18:19 019 1 gusting 3 21.1
2014-Aug-20 18:09 005 1 gusting 3 21.1
2014-Aug-20 17:39 355 1 gusting 3 21.1
2014-Aug-20 17:29 340 6 gusting 6 21.1
2014-Aug-20 17:19 005 2 gusting 5 21.1
2014-Aug-20 16:59 009 5 gusting 6 21.7
2014-Aug-20 16:49 013 2 gusting 6 21.7
2014-Aug-20 16:19 355 4 gusting 6 21.7
2014-Aug-20 15:49 010 3 gusting 3 21.7
2014-Aug-20 15:29 314 2 gusting 4 21.1
2014-Aug-20 15:19 346 2 gusting 3 21.1
2014-Aug-20 14:49 355 4 gusting 6 21.7
2014-Aug-20 14:39 355 2 gusting 6 21.7
2014-Aug-20 14:29 360 2 gusting 6 21.7
2014-Aug-20 14:19 355 3 gusting 3 21.7
2014-Aug-20 14:09 338 3 gusting 4 21.7
2014-Aug-20 13:49 331 6 gusting 6 21.7
2014-Aug-20 13:39 005 2 gusting 3 21.7
2014-Aug-20 13:29 052 21.7
2014-Aug-20 12:59 319 2 gusting 4 21.7
2014-Aug-20 12:49 005 2 gusting 3 21.1
2014-Aug-20 12:29 005 2 gusting 5 21.1
2014-Aug-20 11:59 360 1 gusting 6 21.1
2014-Aug-20 11:29 107 1 gusting 2 21.1
2014-Aug-20 11:09 287 0 gusting 1 20.6
2014-Aug-20 10:59 246 1 gusting 2 20.6
2014-Aug-20 10:49 302 0 gusting 2 20.6
2014-Aug-20 10:39 284 0 gusting 0 20.6
2014-Aug-20 10:29 284 0 gusting 1 20.6
2014-Aug-20 10:19 284 20.6
2014-Aug-20 09:49 285 0 gusting 2 20.6
2014-Aug-20 09:09 264 0 gusting 4 20.0
2014-Aug-20 08:39 252 20.0
2014-Aug-20 08:29 297 2 gusting 2 20.0
2014-Aug-20 08:19 293 1 gusting 2 20.0
2014-Aug-20 07:19 232 1 gusting 3 20.0
2014-Aug-20 06:59 282 0 gusting 2 20.0
2014-Aug-20 06:39 282 1 gusting 1 20.0
2014-Aug-20 06:19 304 1 gusting 2 20.0
2014-Aug-20 05:59 287 20.0
2014-Aug-20 05:39 234 1 gusting 2 20.0
2014-Aug-20 05:29 287 20.0
2014-Aug-20 05:19 268 0 gusting 1 20.0
2014-Aug-20 05:09 268 20.0
2014-Aug-20 04:59 213 20.0
2014-Aug-20 04:49 213 20.0
2014-Aug-20 04:29 215 20.0
2014-Aug-20 04:09 257 0 gusting 1 20.0
2014-Aug-20 03:59 251 0 gusting 2 20.0
2014-Aug-20 03:49 267 0 gusting 1 20.0
2014-Aug-20 03:39 254 0 gusting 1 20.0
2014-Aug-20 03:29 220 0 gusting 1 20.0
2014-Aug-20 03:09 270 20.0
2014-Aug-20 02:59 270 1 gusting 2 20.0
2014-Aug-20 02:49 294 1 gusting 2 20.0
2014-Aug-20 02:39 278 0 gusting 2 20.0
2014-Aug-20 02:29 214 0 gusting 2 20.0
2014-Aug-20 02:09 236 20.0
2014-Aug-20 01:59 236 0 gusting 2 20.0
2014-Aug-20 01:49 179 1 gusting 3 20.0
2014-Aug-20 01:29 187 0 gusting 2 20.0
2014-Aug-20 01:09 163 0 gusting 2 20.0
2014-Aug-20 00:49 277 0 gusting 1 20.0
2014-Aug-20 00:39 263 0 gusting 1 20.0
2014-Aug-20 00:19 240 20.0
2014-Aug-20 00:09 241 2 gusting 2 20.0
2014-Aug-19 23:59 205 0 gusting 1 20.0
2014-Aug-19 23:49 205 0 gusting 1 20.0
2014-Aug-19 23:39 205 20.0
2014-Aug-19 23:29 228 20.0
2014-Aug-19 22:49 269 2 gusting 2 20.0
2014-Aug-19 22:39 288 0 gusting 2 20.0
2014-Aug-19 22:19 263 20.0
2014-Aug-19 22:09 267 1 gusting 2 20.0
2014-Aug-19 21:59 327 2 gusting 2 20.0
2014-Aug-19 21:39 336 1 gusting 2 20.0
2014-Aug-19 21:29 355 2 gusting 2 20.0
2014-Aug-19 21:09 011 20.0
2014-Aug-19 20:39 048 1 gusting 3 20.0
2014-Aug-19 20:19 236 0 gusting 2 20.0
2014-Aug-19 19:49 319 0 gusting 2 20.0
2014-Aug-19 19:39 355 20.0
2014-Aug-19 19:29 333 0 gusting 3 20.0
2014-Aug-19 19:09 028 2 gusting 2 20.0
2014-Aug-19 18:49 338 2 gusting 4 20.0
2014-Aug-19 18:39 051 2 gusting 6 20.0
2014-Aug-19 18:19 360 2 gusting 4 20.6
2014-Aug-19 18:09 057 1 gusting 7 20.6
2014-Aug-19 17:59 049 2 gusting 7 20.6
2014-Aug-19 17:29 344 2 gusting 6 20.6
2014-Aug-19 17:19 036 5 gusting 7 20.6
2014-Aug-19 17:09 360 4 gusting 7 20.6
2014-Aug-19 16:39 342 1 gusting 6 21.1
2014-Aug-19 16:29 009 6 gusting 9 21.1
2014-Aug-19 15:59 054 4 gusting 8 21.1
2014-Aug-19 15:39 042 2 gusting 7 21.1
2014-Aug-19 15:19 005 6 gusting 8 21.1
2014-Aug-19 14:59 339 3 gusting 7 21.1
2014-Aug-19 14:49 005 2 gusting 6 21.1
2014-Aug-19 14:09 347 6 gusting 7 21.1